User: anonymous   Login
Location: Banios
(43.0451°N, 0.2335°E)
Time: 12:17:56
(UTC+00:00)
Language:

Vanguard 1 Rocket - Orbit

View from above orbital plane
View from above orbital plane
View from above satellite
View from above satellite

Ground track
Ground track

The orbit data is extracted from the following two-line orbital elements,

1 00016U 58002A   21132.51223596  .00000193  00000-0  25429-3 0  9992
2 00016  34.2657 284.6687 2026062 185.1194 172.5227 10.48720310493383
Epoch (UTC): 12 May 2021 12:17:37
Eccentricity: 0.2026062
inclination: 34.2657°
perigee height: 652 km
apogee height: 4224 km
right ascension of ascending node: 284.6687°
argument of perigee: 185.1194°
revolutions per day: 10.48720310
mean anomaly at epoch: 172.5227°
orbit number at epoch: 49338

The dashed part of the orbit path shows where the satellite is in the earth's shadow,  

DLR